Theta_e
320 325 331 337 340 343 344 346 347 347 347 347 347 347 347 347 347 347 347 348 347 347 347 347 347 346 346 345 345 345 345 346 348 350 352 352 351 352 353 354 352 349 353
318 322 329 334 337 339 340 341 343 344 344 345 345 345 345 346 347 347 347 347 346 346 347 348 348 346 346 345 344 344 344 347 348 347 349 348 348 350 351 354 351 350 352
316 320 325 328 330 333 335 337 339 340 340 340 341 341 342 342 343 344 343 343 344 346 346 346 347 346 346 345 345 345 344 346 347 345 345 349 350 351 350 353 352 351 352
313 318 321 324 325 328 330 331 331 331 332 333 335 337 336 337 338 339 338 338 339 342 343 344 346 346 346 346 345 344 346 345 345 343 340 346 347 351 349 352 353 351 352
312 316 318 320 322 323 324 325 325 324 325 326 327 327 328 332 332 332 333 334 336 338 340 341 342 342 343 343 344 344 345 346 344 342 335 345 348 349 349 351 353 352 350
309 312 315 317 318 319 320 321 321 320 320 320 320 320 323 324 322 322 323 325 327 329 331 334 337 337 337 339 341 341 342 344 343 342 341 337 346 350 349 351 351 350 347
304 308 311 313 314 316 316 317 317 316 316 316 315 315 317 317 316 316 317 318 320 322 323 325 327 329 332 335 336 338 340 341 340 338 340 342 338 348 349 350 351 351 351
300 302 305 307 309 311 312 313 312 313 313 312 312 311 311 312 312 311 312 314 315 315 316 318 319 321 326 329 333 333 332 332 335 337 338 340 341 343 345 349 351 351 352
300 300 301 302 302 306 307 307 308 309 308 308 307 306 306 307 307 307 308 310 312 312 313 313 314 317 319 318 322 323 322 326 331 335 336 338 339 342 344 345 350 350 351
299 299 299 300 301 301 302 303 304 304 304 304 304 302 301 302 303 302 303 305 307 309 310 311 312 314 312 311 311 312 313 319 333 334 335 336 338 340 342 343 347 349 350
297 298 299 299 300 300 300 298 300 300 300 300 300 300 301 301 301 301 300 301 304 305 307 308 309 310 308 307 307 308 309 320 321 328 333 333 337 339 341 341 345 347 348
296 296 298 298 298 299 296 299 300 299 299 299 299 299 299 299 299 298 299 298 300 300 303 305 306 306 305 305 305 307 306 308 310 319 325 330 333 337 339 341 343 345 347
297 296 296 297 298 298 298 299 300 300 300 299 298 298 298 298 298 298 298 298 299 299 301 302 303 303 303 304 304 305 305 305 306 309 316 322 325 330 336 339 342 344 345
295 296 296 296 297 297 298 298 298 298 298 297 297 296 297 296 296 296 296 297 297 298 298 299 300 301 301 302 303 303 304 304 304 305 307 313 313 323 330 335 339 342 344
295 295 295 296 296 296 297 297 297 297 296 296 296 295 294 294 294 295 295 295 295 296 295 296 297 298 299 300 302 302 302 302 303 304 305 308 309 312 319 330 334 339 342
295 295 295 295 296 296 296 296 295 296 295 295 295 294 293 293 292 292 292 293 293 293 293 293 294 294 296 298 298 299 300 301 302 303 303 304 308 308 311 317 331 334 338
295 295 294 294 295 295 295 294 295 294 294 294 294 292 291 291 291 291 291 291 291 291 292 292 292 293 293 294 295 296 298 300 301 302 303 303 304 307 309 311 315 330 334
295 294 294 293 294 294 293 293 293 293 293 293 293 293 291 290 290 290 290 290 290 290 291 291 291 291 291 292 292 294 296 297 298 300 301 302 303 304 307 309 311 320 331
294 294 293 294 293 293 293 293 292 292 293 293 292 292 290 289 289 288 289 289 289 289 289 289 289 289 289 290 291 292 293 294 296 297 299 300 301 303 304 306 308 309 317
293 293 293 293 293 293 293 292 292 292 292 292 291 291 289 289 288 288 288 288 288 288 288 288 288 289 288 289 289 289 292 294 296 297 298 299 301 302 303 304 307 307 309
292 292 292 292 292 292 291 291 290 290 291 290 290 289 288 288 287 287 287 287 287 287 287 287 287 286 287 288 287 288 290 293 295 296 298 300 300 301 303 304 306 308 309
290 291 291 291 292 291 291 291 290 290 290 290 289 289 288 287 286 285 285 286 286 286 286 286 286 285 286 287 283 284 286 289 297 295 295 295 298 301 302 304 305 308 310
290 290 290 290 291 291 290 289 288 288 288 287 288 288 287 286 286 285 285 285 285 285 285 285 285 284 283 285 285 283 283 284 286 291 292 293 294 297 299 301 303 306 311
291 292 290 290 290 290 290 288 287 287 287 288 287 287 286 286 285 285 284 284 285 285 284 285 284 284 283 281 284 284 284 284 281 282 288 290 292 292 296 299 300 301 304
291 291 290 290 289 289 289 288 288 287 287 287 286 285 285 285 284 284 284 284 284 284 284 284 283 283 283 282 282 282 282 282 283 280 278 284 289 292 293 295 299 301 304
291 290 291 289 288 289 288 288 287 286 286 285 284 283 283 283 283 283 283 283 283 283 283 283 283 282 282 282 282 281 280 278 281 281 281 282 282 286 290 293 298 299 301
Wind_Speed
6 9 14 12 12 13 13 15 15 14 11 11 10 9 9 8 8 8 9 10 10 10 10 10 10 10 10 10 9 10 10 10 11 11 9 9 9 9 8 6 7 8 4
3 7 10 11 11 13 13 13 14 15 15 15 16 16 15 15 14 13 13 11 9 10 12 11 11 10 10 9 10 11 10 11 9 10 10 9 10 8 9 8 8 9 5
4 5 9 11 11 11 12 13 14 15 16 15 13 15 14 14 15 16 15 15 14 13 12 13 13 11 9 9 10 11 12 10 10 10 10 9 10 3 8 8 8 10 9
5 5 8 10 11 11 13 13 13 14 14 15 14 13 14 14 14 13 13 13 13 13 13 13 13 15 14 12 10 11 12 11 10 12 10 9 9 4 8 10 8 10 11
6 4 9 9 10 12 12 13 14 14 14 13 13 13 12 13 12 11 12 12 12 12 11 12 13 14 15 14 13 12 12 11 9 12 10 10 9 7 8 11 9 9 9
7 6 10 10 11 12 12 13 14 15 15 15 14 14 14 14 14 14 14 13 13 13 14 14 14 13 13 13 13 13 12 11 11 12 9 10 10 11 9 12 10 9 8
8 7 8 10 11 11 12 13 13 14 15 15 15 15 15 14 15 15 15 15 15 15 16 15 15 15 15 13 12 13 16 11 11 11 11 10 11 9 12 15 12 11 11
8 6 6 9 11 11 11 12 13 13 14 14 15 15 15 15 15 15 15 14 14 13 14 15 15 15 16 16 15 14 15 13 12 11 11 11 11 11 15 16 14 12 13
7 6 6 6 8 11 11 12 12 12 13 13 13 13 13 13 13 14 14 16 15 15 14 13 13 14 15 16 17 17 17 14 11 10 12 9 7 12 16 17 17 16 15
7 7 6 6 6 6 7 10 11 12 12 12 13 12 10 10 12 14 15 16 16 15 16 16 16 15 16 13 12 14 18 19 9 10 9 9 8 16 18 19 17 18 18
7 7 7 6 6 6 6 6 7 9 10 10 9 12 8 7 10 10 11 14 15 16 15 16 15 15 14 11 12 14 13 6 8 8 8 7 11 17 20 20 18 18 19
12 9 7 7 6 6 4 5 5 6 6 7 8 9 7 8 8 9 8 12 12 14 12 15 16 15 12 8 8 10 7 9 9 8 8 11 17 19 20 21 19 19 19
11 8 8 7 6 5 4 3 3 3 3 4 8 8 6 5 5 5 5 6 7 9 7 9 8 7 11 9 9 8 9 9 7 8 10 12 18 19 22 23 22 21 20
14 11 8 7 7 6 4 4 4 3 3 4 5 7 5 4 5 6 5 7 7 7 9 9 7 9 9 10 11 12 12 10 7 7 10 10 18 20 22 24 25 25 23
15 12 11 9 8 7 6 4 4 4 3 4 4 5 5 5 6 6 6 6 7 7 8 8 8 9 10 10 10 11 12 13 13 9 8 13 17 21 22 24 26 26 27
15 14 12 10 8 7 6 5 4 4 4 3 3 4 6 5 5 5 5 6 6 7 8 8 9 10 10 11 12 12 13 13 13 14 11 12 17 21 23 24 26 28 29
16 16 15 12 10 8 7 5 4 3 3 2 2 3 4 4 5 6 6 6 7 8 10 8 9 9 9 10 13 12 12 13 13 14 13 12 13 17 22 24 27 28 29
17 16 14 11 11 9 7 5 4 4 3 2 1 0 1 3 5 5 5 6 7 8 8 8 9 9 10 10 11 11 11 13 16 16 14 13 12 12 14 22 24 27 28
19 18 16 14 12 10 7 5 5 5 3 1 1 1 3 5 5 5 5 5 7 6 7 7 9 9 10 11 12 12 13 14 14 13 16 17 17 15 12 18 22 25 27
19 18 17 14 14 12 7 5 4 4 3 2 3 3 3 3 4 5 5 6 7 6 6 7 9 8 10 11 13 14 12 13 13 12 14 13 13 16 16 18 14 14 26
19 18 18 16 14 11 8 6 4 4 4 4 4 5 5 3 5 5 5 6 6 6 8 8 9 10 10 10 12 12 13 15 12 11 9 10 13 13 15 15 12 11 13
20 19 18 17 16 12 8 6 3 3 3 3 4 5 5 5 5 6 7 7 7 6 8 8 8 8 8 6 8 11 12 13 1 11 14 14 16 13 14 15 17 17 16
22 22 19 18 16 14 11 6 4 2 3 4 5 3 3 5 6 7 8 8 7 7 7 8 8 10 8 8 7 4 8 9 18 7 12 13 16 13 13 15 18 18 18
22 18 19 18 16 13 14 10 10 7 6 4 3 4 5 7 8 7 8 8 8 7 8 7 6 8 9 10 7 5 10 11 8 20 9 14 17 18 18 14 16 18 19
19 18 19 18 15 13 13 12 9 9 6 4 4 7 7 7 7 8 9 9 8 7 9 10 10 10 8 10 9 9 11 11 14 12 20 18 14 14 15 16 16 15 18
18 18 18 19 18 15 15 14 14 12 9 6 6 5 5 5 6 9 9 8 9 9 10 9 11 13 12 12 11 12 12 12 11 12 15 22 25 18 16 16 17 16 15
Wind_Direction
32 6 352 18 25 32 37 46 51 53 51 47 42 37 25 20 13 8 6 9 2 356 357 359 1 359 353 347 343 338 339 338 334 333 313 293 293 292 287 259 251 244 206
4 20 21 29 40 43 45 46 54 49 49 47 45 45 41 37 33 26 20 11 1 356 349 347 347 351 354 345 334 334 335 332 328 332 316 288 266 272 284 272 254 262 201
58 31 52 46 52 47 49 51 54 58 57 52 50 48 43 37 35 31 29 24 16 3 350 341 338 338 350 347 337 330 327 325 325 323 319 278 271 220 277 278 255 246 243
69 50 59 47 57 60 64 64 61 55 52 49 43 43 41 42 41 36 28 20 16 6 359 353 347 346 349 346 335 334 323 316 317 320 296 277 275 247 271 272 256 248 243
98 80 69 62 63 62 64 67 64 63 62 61 60 56 49 50 43 38 37 28 26 17 6 1 353 354 353 346 340 333 329 330 313 301 295 290 277 265 266 269 257 241 244
98 78 72 66 66 65 63 64 61 55 54 52 50 50 48 49 40 34 28 26 21 14 10 4 0 354 346 342 339 326 321 322 320 298 294 289 280 282 274 270 258 255 238
106 86 84 70 68 66 65 63 61 58 54 50 46 45 43 43 38 33 26 21 14 10 5 359 350 348 347 345 334 335 339 320 303 297 296 286 279 298 277 269 263 246 239
116 108 98 72 70 68 68 65 60 59 56 51 46 44 40 39 35 30 24 21 16 10 4 357 351 347 344 338 340 346 342 338 306 290 285 287 295 296 283 275 266 253 247
128 125 113 106 92 78 71 71 69 70 65 60 52 46 42 39 35 28 21 15 9 3 0 354 351 354 350 347 344 349 345 334 306 283 282 276 273 283 284 279 269 259 246
149 139 129 131 120 105 91 79 79 74 69 62 51 44 39 42 28 25 16 12 6 2 360 357 351 351 342 335 345 344 331 306 292 298 278 276 295 284 281 283 277 263 253
168 163 153 142 133 123 111 90 88 73 64 51 41 37 39 32 21 17 14 1 3 0 355 356 352 346 338 328 332 334 312 316 310 299 296 311 304 283 280 278 275 269 255
178 171 164 155 140 135 118 107 81 74 62 52 40 33 29 25 21 6 5 1 0 356 346 350 349 337 339 337 328 324 325 320 296 290 280 319 315 294 282 277 273 272 261
182 173 174 160 143 140 129 113 96 87 79 63 48 35 31 24 14 12 359 358 352 358 355 344 339 345 337 328 325 317 315 306 299 292 288 313 295 292 294 282 274 271 268
185 180 169 162 159 147 149 139 131 111 86 67 57 36 25 20 12 8 4 354 350 348 344 344 339 329 326 323 317 314 312 306 300 297 285 283 294 293 286 285 279 270 266
190 179 177 174 169 163 163 152 132 111 94 81 68 48 23 20 11 359 354 349 343 341 339 333 332 328 324 319 313 307 305 303 299 295 289 288 284 287 285 282 276 275 266
191 185 176 180 176 169 161 147 131 122 110 83 61 40 30 10 4 352 342 339 337 338 336 329 332 328 324 320 311 310 303 297 292 291 288 292 286 281 280 277 277 269 270
190 182 183 178 176 175 161 143 138 118 123 117 84 55 24 2 348 344 341 339 338 330 326 329 329 322 317 317 312 309 302 296 292 288 287 284 289 281 272 274 270 271 263
191 187 182 179 180 176 163 158 160 164 158 151 119 224 306 344 349 340 336 333 334 325 329 330 327 324 321 316 310 304 298 293 289 285 282 280 276 280 281 273 270 268 265
192 186 185 186 184 178 172 172 183 185 195 179 222 279 342 336 342 327 323 321 317 316 319 322 322 320 316 312 309 306 297 289 283 279 280 278 278 275 277 277 270 265 271
193 189 186 185 184 180 175 184 192 198 206 229 232 243 251 286 308 312 312 311 302 299 304 317 312 316 307 311 311 299 291 287 278 278 277 280 278 278 280 279 277 264 258
193 190 192 186 187 181 184 188 206 211 196 226 221 243 246 287 302 315 304 295 291 300 310 308 312 316 320 330 312 320 298 274 263 261 273 281 281 277 276 278 277 273 268
191 193 193 193 188 191 188 189 188 186 215 257 261 255 265 299 308 300 291 287 291 301 300 306 318 317 315 340 323 299 322 310 179 326 302 286 281 287 286 278 279 281 278
196 195 195 193 190 190 187 170 163 193 241 243 235 253 292 295 287 277 279 283 295 294 298 307 316 316 309 310 310 297 313 302 327 276 311 290 285 283 277 281 278 277 283
200 192 193 192 189 189 183 185 195 207 223 224 265 278 276 272 280 283 290 294 300 297 291 297 299 294 294 295 305 257 257 283 305 312 294 303 295 280 276 275 277 273 267
195 192 190 189 189 186 186 196 198 213 230 243 258 275 279 295 305 303 288 288 284 284 285 289 291 288 283 281 279 276 271 265 264 265 288 297 289 290 296 282 262 261 261
194 193 193 191 191 188 190 196 203 209 213 225 234 257 284 296 276 263 268 278 278 279 282 287 289 284 279 275 272 268 264 260 260 258 260 278 286 284 285 284 281 264 260